Regional Weather Roundup
Issued by NWS

Home | Current Version | Previous Version | Graphics & Text | Print | Product List | Glossary On
Versions: 1 2 3 4 5 6 7 8 9 10 11 12 13 14 15 16 17 18 19 20 21 22 23 24 25 26 27
000
ASUS45 KBOU 222107
RWRCO

WEATHER ROUNDUP FOR COLORADO
NATIONAL WEATHER SERVICE DENVER/BOULDER CO
300 PM MDT SAT JUL 22 2017

NOTE: "FAIR" INDICATES FEW OR NO CLOUDS BELOW 12000 FEET WITH NO
SIGNIFICANT WEATHER AND/OR OBSTRUCTIONS TO VISIBILITY.

COZ001>005-013-030-031-222200-
...NORTHWEST COLORADO...

CITY           SKY/WX    TMP DP  RH WIND       PRES   REMARKS
CRAIG          FAIR      88  37  16 NE6       30.25F
HAYDEN         FAIR      82  39  21 W6G17     30.27F
MEEKER         FAIR      88  37  16 N12       30.25F
RABBIT EARS PA FAIR      66  37  34 NW6       30.60S
STEAMBOAT SPGS FAIR      83  36  18 NW10G18   30.28F
WALDEN         FAIR      77  32  19 NW10G17   30.41S
$$

COZ006>008-011-222200-
...WEST CENTRAL VALLEYS...

CITY           SKY/WX    TMP DP  RH WIND       PRES   REMARKS
GRAND JUNCTION FAIR      90  58  33 S6        30.11F
MONTROSE       FAIR      83  56  39 SW3       30.20F
EAGLE          SUNNY     81  52  36 E3        30.27F
RIFLE          FAIR      90  47  22 N7        30.15F
DELTA          FAIR      89  52  28 S7        30.16F
NUCLA          PTSUNNY   82  46  28 SE18G26   30.22S
$$

COZ017>023-064>068-222200-
...SOUTHWEST COLORADO...

CITY           SKY/WX    TMP DP  RH WIND       PRES   REMARKS
DURANGO        FAIR      81  47  30 S6        30.21S
CORTEZ         FAIR      85  52  32 VRB5      30.18F
PAGOSA SPRINGS CLOUDY    72  43  35 E6        30.38R
TELLURIDE      NOT AVBL
WOLF CREEK PAS CLOUDY    45  45 100 N6        30.72F
$$

COZ009-010-012-014-032>034-037-058>063-222200-
...CENTRAL COLORADO...

CITY           SKY/WX    TMP DP  RH WIND       PRES   REMARKS
ASPEN          FAIR      75  47  36 SW12      30.33F
BUENA VISTA    PTSUNNY   76  40  26 SE7       30.35F
COPPER MTN     FAIR      64  36  34 N3G18     30.69S
BERTHOUD PASS  TSTM      43  30  61 NW17G32   30.75R
COTTONWOOD PAS FAIR      72  34  25 SE5       30.52S
GUNNISON       FAIR      70  52  52 W14       30.36S
KREMMLING      PTSUNNY   86  32  14 NW7       30.33F
LEADVILLE      PTSUNNY   68  36  30 W8        30.47S
MONARCH PASS   CLOUDY    57  41  54 CALM      30.79S
SALIDA         FAIR      80  44  27 SE9G16    30.39F
SUNLIGHT       FAIR      63  37  39 NE6       30.63F
WILKERSON PASS RAIN      52  43  71 SE5       30.67R
$$

COZ069>075-222200-
...SAN LUIS VALLEY/SANGRE DE CRISTO MOUNTAINS...

CITY           SKY/WX    TMP DP  RH WIND       PRES   REMARKS
ALAMOSA        PTSUNNY   75  48  38 S8        30.31S
DEL NORTE      PTSUNNY   64  49  59 W18       30.41R
LA VETA PASS   NOT AVBL
SAGUACHE         N/A    N/A N/A N/A MISG        N/A
$$

COZ035-036-038>040-222200-
...NORTHERN COLORADO FRONT RANGE...

CITY           SKY/WX    TMP DP  RH WIND       PRES   REMARKS
DENVER INTL AP PTSUNNY   89  50  26 VRB3      30.17F
DMNS CITY PARK   N/A     87  46  24 NW6G12    30.18S
AURORA         PTSUNNY   85  48  27 NW6       30.19F
FRONT RANGE AP FAIR      88  45  22 CALM      30.19F
ERIE MUNI ARPT FAIR      87  47  25 NW3       30.16F
BOULDER MUN AP FAIR      84  48  28 NE5       30.17F
CENTENNIAL     PTSUNNY   86  47  25 NW12      30.21F
BROOMFIELD     FAIR      86  46  25 NW3       30.20F
FORT COLLINS   FAIR      85  51  31 SW6       30.16F
LONGMONT       FAIR      87  50  27 E5        30.17F
$$

COZ041-046-047-076>085-087-088-222200-
...PIKES PEAK/PALMER DIVIDE AND SOUTHERN FOOTHILLS...

CITY           SKY/WX    TMP DP  RH WIND       PRES   REMARKS
COLO. SPRINGS  FAIR      87  54  32 N9        30.24F
A. F. ACADEMY  PTSUNNY   81  51  35 SE7       30.24F
SCHRIEVER AFB  FAIR      80  51  37 NE10      30.24F
CHEYENNE MTN   FAIR      78  52  39 SE8       30.24F
ELLICOTT       FAIR     N/A N/A N/A CALM      30.22F
FALCON           N/A     80  51  36 E5        30.30F
FORT CARSON    FAIR      80  56  43 S6        30.21S
LIMON          FAIR      83  54  36 E9        30.19F
MONUMENT HILL  PTSUNNY   73  50  43 NE6       30.32S
CANON CITY     SUNNY     84  55  37 MISG      30.17F
WALSENBURG     CLOUDY    79  48  34 SW15G22   30.25R
TRINIDAD       CLOUDY    79  51  37 W10       30.21R
$$

COZ042>045-048>051-090-091-222200-
...NORTHEAST COLORADO...

CITY           SKY/WX    TMP DP  RH WIND       PRES   REMARKS
GREELEY ARPT   FAIR      88  55  32 VRB3      30.14F
AKRON          FAIR      84  50  30 SE14G24   30.14F
BURLINGTON     FAIR      84  56  38 NE16G23   30.13S
WRAY           NOT AVBL
YUMA           NOT AVBL
STERLING       FAIR      90  46  22 SE16      30.10F
HOLYOKE        FAIR      88  50  27 SE15      30.10F
FORT MORGAN    FAIR      91  48  23 SE9       30.14F
$$

COZ086-089-092>099-222200-
...SOUTHEAST COLORADO...

CITY           SKY/WX    TMP DP  RH WIND       PRES   REMARKS
PUEBLO         FAIR      90  52  27 SE8       30.11F
LA JUNTA       FAIR      92  52  25 NE8       30.09F
LAMAR          FAIR      87  60  40 N14       30.04S
SPRINGFIELD      N/A     90  56  31 N15G24    30.06F
$$




USA.gov is the U.S. government's official web portal to all federal, state and local government web resources and services.